sat.trackr.live / text

‹ back to catalog

STARLINK-36557

NORAD 67500 · 2026-012H

PAYLOAD ACTIVE UNKNOWN

§ Identity

Operator
Country
US
Launch date
2026-01-18
Launch site
AFETR
Launch vehicle
Mass (kg)
RCS (m²)

Purposes: comms

External: N2YO · Heavens-Above · Gunter

§ Orbital elements

Epoch: 2026-05-24T16:23:13.998624Z

Period
94.27 min
Inclination
43.0009°
Eccentricity
0.0001582
Mean motion
15.27587466 rev/d
Perigee alt
481.9 km
Apogee alt
484.1 km
Semi-major
6,861.2 km
B*
2.8098e-4
RAAN
245.2704°
Arg perigee
267.5445°
Mean anomaly
92.5226°
Rev number
1,938

§ Raw data

STARLINK-365571 67500U 26012H   26144.68280091  .00007479  00000+0  28098-3 0  99962 67500  43.0009 245.2704 0001582 267.5445  92.5226 15.27587466 19387

JSON: /api/v1/satellites/67500 · /tle

For live sub-satellite position, see the globe view (requires WebGL).

§ Visibility from observer

Set your observer location to see the next 7 days of passes ≥ 10°. The values pass through the URL so the page stays shareable.

No JS? Fill the form by hand. The geolocation button needs JavaScript.